Regional Weather Roundup
Issued by NWS

Home | Current Version | Previous Version | Text Only | Print | Product List | Glossary On
Versions: 1 2 3 4 5 6 7 8 9 10 11 12 13 14 15 16 17 18 19 20 21 22 23 24 25 26 27 28 29 30 31 32 33 34 35 36 37 38 39 40 41 42 43 44 45 46 47 48 49 50
000
ASUS43 KDMX 270601
RWRIA

WEATHER ROUNDUP FOR IOWA
NATIONAL WEATHER SERVICE DES MOINES IA
100 AM CDT TUE JUN 27 2017

NOTE: "FAIR" INDICATES FEW OR NO CLOUDS BELOW 12,000 FEET WITH NO
SIGNIFICANT WEATHER AND/OR OBSTRUCTIONS TO VISIBILITY.

* - THESE STATIONS ARE NOT NWS STATIONS...THUS NOT UNDER NWS
QUALITY CONTROL.  THEY ALSO DO NOT REPORT WEATHER SUCH
AS PRECIPITATION OR FOG.

IAZ001>003-012>014-020>022-031>034-043>046-270700-
   NORTHWEST IOWA

CITY           SKY/WX    TMP DP  RH WIND       PRES   REMARKS
CARROLL *      CLEAR     48  46  93 CALM      30.15S
CHEROKEE *     CLEAR     48  47  94 CALM      30.15F
DENISON *      CLEAR     50  46  87 CALM      30.17S
LE MARS *      CLEAR     48  45  87 CALM      30.15F
ORANGE CITY *  CLEAR     57  43  58 CALM      30.15F
SHELDON *      CLEAR     48  46  93 CALM      30.14S
SIOUX CITY     CLEAR     51  46  83 CALM      30.15S
6HR MIN TEMP:  49; 6HR MAX TEMP:  73;

SPENCER        CLEAR     50  45  83 CALM      30.15S
6HR MIN TEMP:  49; 6HR MAX TEMP:  71;

STORM LAKE *   CLEAR     57  41  54 SE5       30.16S
$$

IAZ055>058-069>071-079>083-090>094-270700-
   SOUTHWEST IOWA

CITY           SKY/WX    TMP DP  RH WIND       PRES   REMARKS
ATLANTIC *     CLEAR     50  50 100 N5        30.16S
AUDUBON *      CLEAR     48  46  93 CALM      30.17S
CLARINDA *       N/A     55  55 100 CALM      30.17F
COUNCIL BLFS * CLEAR     59  50  72 SE6       30.15S
CRESTON *      PTCLDY    54  48  82 SE5       30.17S
HARLAN  *      CLEAR     50  48  93 CALM      30.19S
LAMONI         PTCLDY    61  49  64 CALM      30.16R
6HR MIN TEMP:  60; 6HR MAX TEMP:  73;

RED OAK *      PTCLDY    54  52  94 CALM      30.16S
SHENANDOAH *   CLEAR     57  57 100 NE6       30.15F
$$

IAZ047>049-059>061-072>074-084-270700-
   CENTRAL IOWA

CITY           SKY/WX    TMP DP  RH WIND       PRES   REMARKS
AMES           CLEAR     49  47  93 CALM      30.15S
6HR MIN TEMP:  48; 6HR MAX TEMP:  72;

ANKENY *       PTCLDY    52  48  87 CALM      30.17R
BOONE *        PTCLDY    55  45  67 CALM      30.15S
CHARITON *     CLEAR     57  48  72 CALM      30.15S
DES MOINES     PTCLDY    61  44  53 E3        30.15S
6HR MIN TEMP:  60; 6HR MAX TEMP:  73;

GRINNELL*      CLEAR     57  43  60 CALM      30.17R
KNOXVILLE *    PTCLDY    57  45  62 CALM      30.14S
MARSHALLTOWN   CLEAR     51  47  86 NW3       30.14S
6HR MIN TEMP:  50; 6HR MAX TEMP:  70;

NEWTON *       CLEAR     57  45  62 CALM      30.15F
PELLA *        PTCLDY    56  44  64 CALM      30.16S
PERRY *          N/A     52  49  89 CALM      30.16S
$$

IAZ004>006-015-016-023>025-035-036-270700-
   NORTH CENTRAL IOWA

CITY           SKY/WX    TMP DP  RH WIND       PRES   REMARKS
ALGONA *       PTCLDY    54  45  71 SW3       30.15S
CLARION *        N/A     50  46  87 CALM      30.15S
ESTHERVILLE    CLEAR     50  46  86 SW5       30.14S
6HR MIN TEMP:  49; 6HR MAX TEMP:  68;

FORT DODGE *   CLEAR     52  43  71 CALM      30.16S
MASON CITY     PTCLDY    50  43  77 CALM      30.16S
6HR MIN TEMP:  50; 6HR MAX TEMP:  68;

FOREST CITY *    N/A     46  30  53 CALM      30.15S
WEBSTER CITY * PTCLDY    52  45  76 CALM      30.13S
IOWA FALLS *     N/A     53  45  75 CALM      30.16S
$$

IAZ007>011-017>019-026>030-037>042-050>054-066-270700-
   NORTHEAST IOWA

CITY           SKY/WX    TMP DP  RH WIND       PRES   REMARKS
CEDAR RAPIDS   CLEAR     53  45  74 CALM      30.14R
6HR MIN TEMP:  51; 6HR MAX TEMP:  69;

CHARLES CITY * PTCLDY    52  50  93 CALM      30.15S
CLINTON *      CLEAR     51  46  83 NW5       30.14R
DECORAH *      CLEAR     52  46  82 CALM      30.13S
DUBUQUE        CLEAR     50  45  83 CALM      30.14R
6HR MIN TEMP:  50; 6HR MAX TEMP:  66;

MONTICELLO *   CLEAR     48  46  93 CALM      30.14S
WATERLOO       CLEAR     51  47  86 CALM      30.14R
6HR MIN TEMP:  50; 6HR MAX TEMP:  69;

$$

IAZ064-065-067-068-078-270700-
   EAST CENTRAL IOWA

CITY           SKY/WX    TMP DP  RH WIND       PRES   REMARKS
DAVENPORT      PTCLDY    51  46  83 NW3       30.14R
6HR MIN TEMP:  51; 6HR MAX TEMP:  69;

IOWA CITY      CLEAR     53  47  79 CALM      30.15R
6HR MIN TEMP:  52; 6HR MAX TEMP:  72;

MT. PLEASANT * CLEAR     53  46  77 CALM      30.15S
MUSCATINE *    PTCLDY    52  48  87 CALM      30.15R
QUAD CITIES    CLEAR     52  46  80 CALM      30.14R
6HR MIN TEMP:  51; 6HR MAX TEMP:  72;

$$

IAZ062-063-075>077-085>089-095>099-270700-
   SOUTHEAST IOWA

CITY           SKY/WX    TMP DP  RH WIND       PRES   REMARKS
BURLINGTON     CLEAR     53  50  89 CALM      30.14R
6HR MIN TEMP:  52; 6HR MAX TEMP:  67;

FAIRFIELD *    CLEAR     54  45  71 CALM      30.14F
FORT MADISON * CLEAR     57  52  82 CALM      30.15S
KEOKUK *       CLEAR     55  52  88 E3        30.14S
OSKALOOSA *      N/A     51  44  77 CALM      30.15S
OTTUMWA        CLEAR     57  44  62 NE6       30.15R
6HR MIN TEMP:  56; 6HR MAX TEMP:  72;

WASHINGTON *   CLEAR     52  46  82 CALM      30.16R
$$

ABBREVIATIONS USED IN REMARKS
   TC - TEMPERATURES IN CELSIUS
  WCI - WIND CHILL INDEX
   HX - HEAT INDEX
  VSB - VISIBILITY
$$





USA.gov is the U.S. government's official web portal to all federal, state and local government web resources and services.